Weather History for Fremont, NE

Change the Weather History Date:

Saturday, November 20, 2010

  Actual Average Record
Temperature  
Mean Temperature 30 °F -  
Max Temperature 34 °F 46 °F 71 °F (2003)
Min Temperature 27 °F 28 °F 5 °F (1950)
Degree Days  
Heating Degree Days 34    
Moisture  
Dew Point 22 °F    
Average Humidity 71    
Maximum Humidity 87    
Minimum Humidity 65    
Precipitation  
Precipitation 0.00 in - - ()
Sea Level Pressure  
Sea Level Pressure 30.09 in    
Wind  
Wind Speed 8 mph (NE)    
Max Wind Speed 14 mph    
Max Gust Speed 20 mph    
Visibility 10 miles    
Events      
Averages and records for this station are not official NWS values.
T = Trace of Precipitation, MM = Missing Value Source: NWS Daily Summary

Daily Weather History Graph

Daily Weather History Graph

Search for Another Location

Airport:

Trip Planner

Search our weather history database for the weather conditions in past years. The results will help you decide how hot, cold, wet, or windy it might be!

Date:

Astronomy

Nov. 20, 2010 Rise Set
Actual Time 7:20 AM CST 5:02 PM CST
Civil Twilight 6:50 AM CST 5:32 PM CST
Nautical Twilight 6:16 AM CST 6:06 PM CST
Astronomical Twilight 5:43 AM CST 6:39 PM CST
Moon 4:09 PM CST (11/20) 6:21 AM CST (11/20)
Length of Visible Light 10h 42m
Length of Day
9h 41m
Waxing Gibbous, 99% of the Moon is Illuminated
Nov 20
Waxing Gibbous
Nov 21
Full
Nov 28
Last Quarter
Dec 5
New
Dec 13
First Quarter

Hourly Weather History & Observations

Time (CST) Temp. Windchill Dew Point Humidity Pressure Visibility Wind Dir Wind Speed Gust Speed Precip Events Conditions
12:10 AM 30.6 °F 24.7 °F 25.3 °F 81% 30.13 in 10.0 mi NE 5.8 mph - N/A   Clear
12:30 AM 30.9 °F 26.2 °F 23.9 °F 75% 30.14 in 10.0 mi NE 4.6 mph - N/A   Clear
12:50 AM 30.2 °F 24.3 °F 23.0 °F 75% 30.15 in 10.0 mi ENE 5.8 mph - N/A   Clear
1:10 AM 30.2 °F 24.3 °F 22.5 °F 73% 30.15 in 10.0 mi NE 5.8 mph - N/A   Clear
1:30 AM 29.7 °F 22.8 °F 21.9 °F 73% 30.15 in 10.0 mi NE 6.9 mph - N/A   Clear
1:50 AM 29.3 °F 21.5 °F 20.7 °F 70% 30.14 in 10.0 mi NE 8.1 mph - N/A   Clear
2:30 AM 29.3 °F 22.3 °F 20.1 °F 69% 30.14 in 10.0 mi NE 6.9 mph - N/A   Mostly Cloudy
2:50 AM 29.3 °F 22.3 °F 20.3 °F 69% 30.14 in 10.0 mi NE 6.9 mph - N/A   Overcast
3:10 AM 29.3 °F 21.5 °F 20.1 °F 69% 30.15 in 10.0 mi NE 8.1 mph 16.1 mph N/A   Overcast
3:30 AM 29.1 °F 20.6 °F 20.1 °F 69% 30.14 in 10.0 mi NE 9.2 mph - N/A   Overcast
3:50 AM 28.9 °F 19.8 °F 20.1 °F 70% 30.14 in 10.0 mi NE 10.4 mph - N/A   Overcast
4:10 AM 28.8 °F 19.5 °F 20.3 °F 71% 30.14 in 10.0 mi NE 10.4 mph - N/A   Overcast
4:30 AM 28.4 °F 18.5 °F 19.9 °F 71% 30.14 in 10.0 mi NE 11.5 mph 18.4 mph N/A   Overcast
4:50 AM 28.2 °F 20.2 °F 20.3 °F 72% 30.14 in 10.0 mi NE 8.1 mph - N/A   Overcast
5:10 AM 28.2 °F 19.5 °F 19.9 °F 71% 30.15 in 10.0 mi ENE 9.2 mph 16.1 mph N/A   Overcast
5:30 AM 28.0 °F 18.1 °F 19.4 °F 70% 30.15 in 10.0 mi NE 11.5 mph 16.1 mph N/A   Overcast
5:50 AM 28.2 °F 19.5 °F 19.8 °F 71% 30.15 in 10.0 mi NE 9.2 mph - N/A   Overcast
6:10 AM 28.0 °F 18.6 °F 19.6 °F 71% 30.15 in 10.0 mi ENE 10.4 mph - N/A   Overcast
6:30 AM 28.2 °F 18.9 °F 18.7 °F 67% 30.14 in 10.0 mi NE 10.4 mph - N/A   Overcast
6:50 AM 27.9 °F 18.4 °F 18.3 °F 67% 30.15 in 10.0 mi ENE 10.4 mph 17.3 mph N/A   Overcast
7:10 AM 28.0 °F 19.3 °F 18.9 °F 68% 30.15 in 10.0 mi ENE 9.2 mph - N/A   Overcast
7:30 AM 27.9 °F 19.8 °F 18.5 °F 68% 30.14 in 10.0 mi ENE 8.1 mph 11.5 mph N/A   Overcast
7:50 AM 28.0 °F 18.6 °F 18.1 °F 66% 30.15 in 10.0 mi ENE 10.4 mph 16.1 mph N/A   Overcast
8:10 AM 28.0 °F 19.3 °F 17.8 °F 65% 30.16 in 10.0 mi NE 9.2 mph - N/A   Overcast
8:30 AM 28.4 °F 17.5 °F 18.1 °F 65% 30.16 in 10.0 mi NE 13.8 mph - N/A   Overcast
8:50 AM 28.4 °F 18.5 °F 18.1 °F 65% 30.16 in 10.0 mi NE 11.5 mph 16.1 mph N/A   Overcast
9:10 AM 28.4 °F 18.5 °F 18.3 °F 66% 30.15 in 10.0 mi ENE 11.5 mph - N/A   Overcast
9:30 AM 28.8 °F 19.0 °F 18.3 °F 65% 30.14 in 10.0 mi NE 11.5 mph 19.6 mph N/A   Overcast
9:50 AM 29.1 °F 18.9 °F 18.7 °F 65% 30.13 in 10.0 mi ENE 12.7 mph 18.4 mph N/A   Overcast
10:10 AM 29.1 °F 19.4 °F 19.2 °F 67% 30.13 in 10.0 mi ENE 11.5 mph - N/A   Overcast
10:30 AM 29.8 °F 20.3 °F 19.8 °F 66% 30.12 in 10.0 mi ENE 11.5 mph - N/A   Overcast
10:50 AM 29.8 °F 19.3 °F 20.1 °F 67% 30.12 in 10.0 mi ENE 13.8 mph 17.3 mph N/A   Overcast
11:10 AM 30.2 °F 20.8 °F 20.5 °F 67% 30.12 in 10.0 mi ENE 11.5 mph - N/A   Overcast
11:30 AM 30.7 °F 21.4 °F 21.2 °F 68% 30.12 in 10.0 mi ENE 11.5 mph 16.1 mph N/A   Overcast
11:50 AM 30.7 °F 22.0 °F 21.2 °F 68% 30.09 in 10.0 mi NE 10.4 mph - N/A   Overcast
12:10 PM 30.7 °F 23.3 °F 21.7 °F 69% 30.08 in 10.0 mi NE 8.1 mph - N/A   Overcast
12:30 PM 31.1 °F 21.9 °F 22.1 °F 69% 30.07 in 10.0 mi NE 11.5 mph - N/A   Overcast
12:50 PM 31.5 °F 21.8 °F 22.5 °F 69% 30.05 in 10.0 mi NE 12.7 mph 18.4 mph N/A   Overcast
1:10 PM 32.0 °F 23.0 °F 23.0 °F 69% 30.02 in 10.0 mi ENE 11.5 mph 19.6 mph N/A   Overcast
1:30 PM 32.0 °F 24.8 °F 23.9 °F 72% 30.03 in 10.0 mi ENE 8.1 mph - N/A   Overcast
1:50 PM 32.2 °F 24.4 °F 24.3 °F 73% 30.01 in 10.0 mi ENE 9.2 mph - N/A   Overcast
2:10 PM 32.5 °F 24.8 °F 24.8 °F 73% 30.01 in 10.0 mi NE 9.2 mph - N/A   Overcast
2:30 PM 33.1 °F 26.9 °F 25.2 °F 73% 30.01 in 10.0 mi NE 6.9 mph 16.1 mph N/A   Overcast
2:50 PM 33.4 °F 26.6 °F 25.5 °F 73% 30.00 in 10.0 mi NE 8.1 mph - N/A   Overcast
3:10 PM 33.8 °F 27.7 °F 25.9 °F 73% 30.00 in 10.0 mi NE 6.9 mph - N/A   Overcast
3:30 PM 33.8 °F 26.4 °F 26.1 °F 73% 30.01 in 10.0 mi NE 9.2 mph - N/A   Overcast
3:50 PM 34.0 °F 28.0 °F 26.1 °F 73% 30.02 in 10.0 mi NE 6.9 mph - N/A   Overcast
4:10 PM 34.2 °F 26.2 °F 26.6 °F 74% 30.00 in 10.0 mi ENE 10.4 mph - N/A   Overcast
4:30 PM 34.2 °F 29.0 °F 26.6 °F 74% 29.99 in 10.0 mi ENE 5.8 mph - N/A   Overcast
4:50 PM 34.2 °F 29.0 °F 26.6 °F 74% 29.99 in 10.0 mi NE 5.8 mph - N/A   Overcast
5:10 PM 34.2 °F 29.0 °F 26.8 °F 74% 29.99 in 10.0 mi NE 5.8 mph - N/A   Overcast
5:30 PM 34.3 °F 28.4 °F 27.5 °F 76% 29.99 in 10.0 mi NE 6.9 mph - N/A   Overcast
5:50 PM 34.3 °F 28.4 °F 28.8 °F 80% 29.99 in 10.0 mi NE 6.9 mph - N/A   Overcast
6:10 PM 34.0 °F 28.0 °F 29.8 °F 85% 29.99 in 7.0 mi NE 6.9 mph - N/A   Overcast
6:30 PM 33.8 °F 28.6 °F 30.2 °F 87% 29.98 in 7.0 mi NNE 5.8 mph - N/A   Overcast
6:50 PM 33.8 °F 28.6 °F 30.7 °F 89% 29.97 in 7.0 mi NE 5.8 mph - N/A   Overcast
7:10 PM 33.4 °F 27.3 °F 31.1 °F 91% 29.97 in 5.0 mi NE 6.9 mph - N/A   Overcast
7:30 PM 33.4 °F 26.6 °F 31.3 °F 92% 29.96 in 7.0 mi ENE 8.1 mph - N/A   Overcast
7:50 PM 33.8 °F 27.7 °F 31.1 °F 90% 29.95 in 10.0 mi ENE 6.9 mph - N/A   Overcast
8:10 PM 34.3 °F 29.2 °F 31.1 °F 88% 29.94 in 10.0 mi NE 5.8 mph - N/A   Overcast
8:30 PM 34.7 °F 28.8 °F 30.9 °F 86% 29.93 in 10.0 mi ENE 6.9 mph - N/A   Overcast
9:10 PM 34.9 °F 29.0 °F 30.7 °F 85% 29.92 in 10.0 mi ENE 6.9 mph - N/A   Overcast
9:30 PM 35.1 °F 30.1 °F 30.6 °F 84% 29.92 in 10.0 mi NE 5.8 mph - N/A   Overcast
9:50 PM 35.2 °F 31.2 °F 30.2 °F 82% 29.92 in 10.0 mi NE 4.6 mph - N/A   Overcast
10:10 PM 35.2 °F - 30.2 °F 82% 29.91 in 10.0 mi Calm Calm - N/A   Overcast
10:30 PM 35.2 °F 30.3 °F 30.2 °F 82% 29.90 in 10.0 mi NNE 5.8 mph - N/A   Overcast
10:50 PM 35.6 °F 31.7 °F 30.6 °F 82% 29.89 in 10.0 mi NE 4.6 mph - N/A   Overcast
11:10 PM 35.6 °F 32.8 °F 30.7 °F 82% 29.88 in 10.0 mi NE 3.5 mph - N/A   Overcast
11:30 PM 35.8 °F 31.9 °F 31.1 °F 83% 29.88 in 10.0 mi ENE 4.6 mph - N/A   Overcast
11:50 PM 36.0 °F 33.3 °F 31.1 °F 82% 29.88 in 10.0 mi NNE 3.5 mph - N/A   Overcast